Regional Weather Roundup
Issued by NWS

Home | Current Version | Previous Version | Text Only | Print | Product List | Glossary Off
Versions: 1 2 3 4 5 6 7 8 9 10 11 12 13 14 15 16 17 18 19 20 21 22 23 24 25 26 27 28 29 30 31 32 33 34 35 36 37 38 39 40 41 42 43 44 45 46 47 48 49 50

000
ASUS43 KLSX 261307
RWRMO

WEATHER SUMMARY FOR MISSOURI
NATIONAL WEATHER SERVICE SPRINGFIELD MO
700 AM CST MON JAN 26 2015

NOTE: "FAIR" INDICATES FEW OR NO CLOUDS BELOW 12,000 FEET WITH NO
       SIGNIFICANT WEATHER AND/OR OBSTRUCTIONS TO VISIBILITY.
       CURRENT SKY AND/OR WEATHER CONDITIONS ARE NOT AVAILABLE FOR
       CHILLICOTHE AND FARMINGTON.

MOZ001>031-035>038-043-044-053-054-261400-
...NORTHERN AND WESTERN MISSOURI...

CITY           SKY/WX    TMP DP  RH WIND       PRES   REMARKS
KANSAS CTY INT CLEAR     25  23  92 SW7       30.01S WCI  17
KANSAS C DTWN  CLEAR     30  27  88 SW5       30.03R WCI  25
LEE`S SUMMIT   CLEAR     26  24  92 SW8       30.03R WCI  18
ST JOSEPH      CLEAR     26  23  88 S9        29.99F WCI  17
CHILLICOTHE      N/A     28  24  85 S5        30.01F WCI  23
KIRKSVILLE     CLOUDY    31  28  89 SW7       30.00F WCI  24

$$
MOZ066>068-077>081-088>096-101>105-261400-
...SOUTHWEST MISSOURI...

CITY           SKY/WX    TMP DP  RH WIND       PRES   REMARKS
SPRINGFIELD    PTCLDY    29  26  89 SW6       30.07S WCI  23
JOPLIN         CLEAR     26  24  92 S6        30.10F WCI  19

$$
MOZ032>034-039>042-045>050-055>058-069>072-261400-
...CENTRAL MISSOURI...

CITY           SKY/WX    TMP DP  RH WIND       PRES   REMARKS
COLUMBIA       CLOUDY    30  27  88 SW5       30.05R WCI  25
JEFFERSON CITY CLOUDY    32  27  81 CALM      30.08R
ROLLA          CLOUDY    29  26  89 W7        30.04R WCI  22
SEDALIA        CLEAR     29  26  89 SW8       30.07R WCI  21
WHITEMAN AFB   CLEAR     25  23  91 SW7       30.04S WCI  18
WARRENSBURG    CLEAR     27  25  93 S6        30.05S WCI  20
OSAGE BEACH    MOCLDY    30  27  86 W3        30.07R

$$
MOZ051-052-059>065-261400-
...EAST CENTRAL MISSOURI...

CITY           SKY/WX    TMP DP  RH WIND       PRES   REMARKS
ST LOUIS INTL  MOCLDY    28  22  78 NW9       30.06R WCI  19
SPIRIT OF STL  CLOUDY    27  22  81 W6        30.07R WCI  20
ST CHARLES     CLOUDY    27  23  85 W9        30.07R WCI  18

$$
MOZ072>076-082>087-097>100-106>115-261400-
...SOUTH CENTRAL AND SOUTHEAST MISSOURI...

CITY           SKY/WX    TMP DP  RH WIND       PRES   REMARKS
CAPE GIRARDEAU PTCLDY    29  25  85 NW5       30.05S WCI  24
FARMINGTON     CLOUDY    27  23  86 MISG      30.06R
POPLAR BLUFF   CLEAR     32  25  75 NW5       30.06R WCI  27
WEST PLAINS    CLOUDY    32  27  81 W7        30.06R WCI  26

$$



USA.gov is the U.S. government's official web portal to all federal, state and local government web resources and services.